Flight Track Log - Related Links

Times and Time Zones

All times are in EDT time to prevent confusion due to time zone crossing. See the XOJ549 flight status page for this flight to view local times or setup timezone preferences in your user account.

Time Position Orientation Groundspeed Altitude Reporting Facility
EDT Latitude Longitude Course Direction KTS MPH feet Rate Location/Type
Fri 13:49:11 40.8558 -96.7633 308° West 148 170 2,200  Level Minneapolis Center
Fri 13:49:54 40.8797 -96.8036 308° West 184 212 4,200 3,543 Climbing Minneapolis Center
Fri 13:50:56 40.8756 -96.8936 267° West 250 288 8,400 4,161 Climbing Minneapolis Center
Fri 13:51:58 40.8933 -96.9992 283° West 286 329 12,800 4,049 Climbing Minneapolis Center
Fri 13:52:59 40.8875 -97.1258 267° West 340 391 16,700 3,854 Climbing Minneapolis Center
Fri 13:54:01 40.8714 -97.2922 263° West 374 430 20,700 3,242 Climbing Minneapolis Center
Fri 13:55:03 40.8581 -97.4242 262° West 387 445 23,400 2,516 Climbing Minneapolis Center
Fri 13:56:05 40.8439 -97.5728 263° West 401 461 25,900 2,274 Climbing Minneapolis Center
Fri 13:57:07 40.8272 -97.7306 262° West 424 488 28,100 2,323 Climbing Minneapolis Center
Fri 13:58:09 40.8061 -97.9244 262° West 440 506 30,700 2,129 Climbing Minneapolis Center
Fri 13:59:11 40.7883 -98.0892 262° West 448 516 32,500 1,452 Climbing Minneapolis Center
Fri 14:00:13 40.7703 -98.2583 262° West 459 528 33,700 1,355 Climbing Minneapolis Center
Fri 14:01:15 40.7517 -98.4322 262° West 470 541 35,300 1,742 Climbing Minneapolis Center
Fri 14:02:17 40.7325 -98.6047 262° West 472 543 37,300 1,790 Climbing Minneapolis Center
Fri 14:03:19 40.7142 -98.7711 262° West 462 532 39,000 1,463 Climbing Minneapolis Center
Fri 14:04:20 40.6969 -98.9356 262° West 453 521 40,300 976 Climbing Minneapolis Center
Fri 14:05:22 40.6783 -99.0989 262° West 449 517 41,000 581 Climbing Minneapolis Center
Fri 14:06:24 40.6586 -99.2656 261° West 453 521 41,500 662 Climbing Minneapolis Center
Fri 14:07:38 40.6314 -99.5036 262° West 462 532 42,500 662 Climbing Minneapolis Center
Fri 14:08:40 40.6131 -99.6697 262° West 462 532 43,000 242 Climbing Minneapolis Center
Fri 14:09:42 40.5925 -99.8356 261° West 460 529 43,000  Level Minneapolis Center
Fri 14:10:44 40.5719 -100.0008 261° West 459 528 43,000  Level Minneapolis Center
Fri 14:11:45 40.5522 -100.1647 261° West 456 525 43,000  Level Minneapolis Center
Fri 14:12:47 40.5314 -100.3306 261° West 457 526 43,000  Level Minneapolis Center
Fri 14:13:49 40.5100 -100.4928 260° West 455 524 43,000  Level Minneapolis Center
Fri 14:15:02 40.4794 -100.7175 260° West 454 522 43,000  Level Denver Center
Fri 14:16:04 40.4589 -100.8764 260° West 458 527 43,000  Level Denver Center
Fri 14:17:07 40.4319 -101.0339 257° West 460 529 43,000  Level Denver Center
Fri 14:18:09 40.3975 -101.2167 256° West 461 531 43,000  Level Denver Center
Fri 14:19:11 40.3664 -101.3733 255° West 463 533 43,000  Level Denver Center
Fri 14:20:13 40.3319 -101.5547 256° West 460 529 43,000  Level Denver Center
Fri 14:21:15 40.3022 -101.7100 256° West 459 528 43,000  Level Denver Center
Fri 14:22:17 40.2667 -101.8892 255° West 455 524 43,000  Level Denver Center
Fri 14:23:19 40.2353 -102.0442 255° West 459 528 43,000  Level Denver Center
Fri 14:24:21 40.1994 -102.2236 255° West 458 527 43,000  Level Denver Center
Fri 14:25:23 40.1686 -102.3744 255° West 449 517 43,000  Level Denver Center
Fri 14:26:25 40.1339 -102.5483 255° West 445 512 43,000  Level Denver Center
Fri 14:27:27 40.1003 -102.7122 255° West 447 514 43,000  Level Denver Center
Fri 14:28:29 40.0669 -102.8697 255° West 447 514 43,000  Level Denver Center
Fri 14:29:31 40.0344 -103.0300 255° West 450 518 43,000  Level Denver Center
Fri 14:30:33 40.0006 -103.1900 255° West 454 522 43,000  Level Denver Center
Fri 14:31:35 39.9669 -103.3508 255° West 457 526 43,000  Level Denver Center
Fri 14:32:38 39.9339 -103.5097 255° West 452 520 43,000  Level Denver Center
Fri 14:33:39 39.8992 -103.6686 254° West 452 520 43,000  Level Denver Center
Fri 14:34:42 39.8661 -103.8281 255° West 454 522 43,000  Level Denver Center
Fri 14:35:44 39.8264 -104.0119 254° West 447 514 43,000  Level Denver Center
Fri 14:36:46 39.7903 -104.1711 254° West 455 524 43,000  Level Denver Center
Fri 14:37:48 39.7556 -104.3261 254° West 444 511 43,000  Level Denver Center
Fri 14:38:50 39.7206 -104.4836 254° West 449 517 43,000  Level Denver Center
Fri 14:39:52 39.6881 -104.6350 254° West 438 504 43,000  Level Denver Center
Fri 14:40:54 39.6708 -104.8111 263° West 430 495 43,000  Level Denver Center
Fri 14:41:56 39.6553 -104.9678 263° West 438 504 43,000  Level Denver Center
Fri 14:42:58 39.6381 -105.1208 262° West 426 490 43,000  Level Denver Center
Fri 14:44:00 39.6211 -105.2761 262° West 432 497 43,000  Level Denver Center
Fri 14:45:02 39.6053 -105.4317 263° West 430 495 43,000  Level Denver Center
Fri 14:46:04 39.5878 -105.5875 262° West 430 495 43,000  Level Denver Center
Fri 14:47:06 39.5667 -105.7714 262° West 435 501 43,000  Level Denver Center
Fri 14:48:08 39.5514 -105.9272 263° West 429 494 43,000  Level Denver Center
Fri 14:49:10 39.5331 -106.0847 261° West 438 504 43,000  Level Denver Center
Fri 14:50:12 39.5156 -106.2400 262° West 443 510 43,000  Level Denver Center
Fri 14:51:14 39.4975 -106.3981 262° West 444 511 43,000  Level Denver Center
Fri 14:52:16 39.4764 -106.5775 261° West 446 513 43,000  Level Denver Center
Fri 14:53:18 39.4589 -106.7278 261° West 442 509 43,000  Level Denver Center
Fri 14:54:20 39.4344 -106.9028 260° West 441 507 43,000  Level Denver Center
Fri 14:55:22 39.4008 -107.0483 253° West 440 506 43,000  Level Denver Center
Fri 14:56:24 39.3583 -107.2178 252° West 444 511 43,000  Level Denver Center
Fri 14:57:26 39.3203 -107.3619 251° West 443 510 43,000  Level Denver Center
Fri 14:58:28 39.2847 -107.5047 252° West 438 504 43,000  Level Denver Center
Fri 14:59:32 39.2419 -107.6714 252° West 436 502 43,000  Level Denver Center
Fri 15:00:34 39.2000 -107.8361 252° West 434 499 43,000  Level Denver Center
Fri 15:01:36 39.1636 -107.9769 252° West 430 495 43,000  Level Denver Center
Fri 15:02:38 39.1267 -108.1167 251° West 429 494 43,000  Level Denver Center
Fri 15:03:40 39.0844 -108.2783 251° West 425 489 43,000  Level Denver Center
Fri 15:04:42 39.0467 -108.4192 251° West 430 495 43,000  Level Denver Center
Fri 15:05:44 39.0036 -108.5842 251° West 433 498 43,000  Level Denver Center
Fri 15:06:46 38.9664 -108.7222 251° West 426 490 43,000  Level Denver Center
Fri 15:07:48 38.9219 -108.8853 251° West 430 495 43,000  Level Denver Center
Fri 15:08:50 38.8858 -109.0247 252° West 429 494 43,000  Level Denver Center
Fri 15:09:52 38.8469 -109.1639 250° West 433 498 43,000  Level Denver Center
Fri 15:10:55 38.8036 -109.3256 251° West 429 494 43,000  Level Denver Center
Fri 15:12:09 38.7525 -109.5100 250° West 429 494 43,000  Level Denver Center
Fri 15:13:11 38.7147 -109.6469 251° West 425 489 43,000  Level Denver Center
Fri 15:14:13 38.6700 -109.8083 251° West 430 495 43,000  Level Denver Center
Fri 15:14:43 38.6517 -109.8786 252° West 429 494 43,000  Level Salt Lake Center
Fri 15:15:45 38.6122 -110.0153 250° West 428 493 43,000  Level Salt Lake Center
Fri 15:16:17 38.5925 -110.0842 250° West 433 498 43,000  Level Denver Center
Fri 15:16:46 38.5667 -110.1756 250° West 428 493 43,000  Level Salt Lake Center
Fri 15:17:48 38.5297 -110.3122 251° West 425 489 43,000  Level Salt Lake Center
Fri 15:18:21 38.5094 -110.3781 249° West 423 487 43,000  Level Denver Center
Fri 15:19:23 38.4650 -110.5328 250° West 416 479 43,000  Level Denver Center
Fri 15:20:25 38.4258 -110.6656 249° West 418 481 43,000  Level Denver Center
Fri 15:20:53 38.4056 -110.7322 249° West 416 479 43,000  Level Salt Lake Center
Fri 15:21:55 38.3394 -110.8753 240° Southwest 419 482 43,000  Level Salt Lake Center
Fri 15:22:57 38.2806 -111.0089 241° Southwest 421 484 43,000  Level Salt Lake Center
Fri 15:23:59 38.2222 -111.1389 240° Southwest 425 489 43,000  Level Salt Lake Center
Fri 15:25:01 38.1647 -111.2675 240° Southwest 421 484 43,000  Level Salt Lake Center
Fri 15:26:02 38.1067 -111.3969 240° Southwest 421 484 43,000  Level Salt Lake Center
Fri 15:27:04 38.0483 -111.5261 240° Southwest 422 486 43,000  Level Salt Lake Center
Fri 15:28:06 37.9897 -111.6533 240° Southwest 420 483 43,000  Level Salt Lake Center
Fri 15:29:08 37.9192 -111.8086 240° Southwest 423 487 43,000  Level Salt Lake Center
Fri 15:30:09 37.8608 -111.9361 240° Southwest 420 483 43,000  Level Salt Lake Center
Fri 15:31:11 37.8022 -112.0614 239° Southwest 416 479 43,000  Level Salt Lake Center
Fri 15:32:13 37.7433 -112.1883 240° Southwest 418 481 43,000  Level Salt Lake Center
Fri 15:33:15 37.6831 -112.3133 239° Southwest 417 480 43,000  Level Salt Lake Center
Fri 15:34:16 37.6094 -112.4289 231° Southwest 419 482 43,000  Level Salt Lake Center
Fri 15:35:18 37.5344 -112.5450 231° Southwest 422 486 43,000  Level Salt Lake Center
Fri 15:36:20 37.4578 -112.6608 230° Southwest 424 488 43,000  Level Salt Lake Center
Fri 15:37:21 37.3806 -112.7797 231° Southwest 429 494 43,000  Level Salt Lake Center
Fri 15:38:23 37.3039 -112.8986 231° Southwest 432 497 43,000  Level Salt Lake Center
Fri 15:39:25 37.2133 -113.0394 231° Southwest 430 495 43,000  Level Salt Lake Center
Fri 15:40:21 37.1525 -113.1322 231° Southwest 430 495 43,000  Level Los Angeles Center
Fri 15:41:28 37.0617 -113.2753 232° Southwest 435 501 43,000  Level Salt Lake Center
Fri 15:42:29 36.9842 -113.3908 230° Southwest 434 499 43,000  Level Salt Lake Center
Fri 15:43:28 36.9075 -113.5047 230° Southwest 433 498 43,000  Level Los Angeles Center
Fri 15:44:29 36.8317 -113.6214 231° Southwest 433 498 43,000  Level Los Angeles Center
Fri 15:45:31 36.7547 -113.7375 230° Southwest 434 499 43,000  Level Los Angeles Center
Fri 15:46:34 36.6781 -113.8514 230° Southwest 431 496 43,000  Level Los Angeles Center
Fri 15:47:36 36.6022 -113.9661 231° Southwest 429 494 43,000  Level Los Angeles Center
Fri 15:48:38 36.5117 -114.1017 230° Southwest 427 491 43,000  Level Los Angeles Center
Fri 15:49:52 36.4331 -114.2175 230° Southwest 423 487 43,000  Level Los Angeles Center
Fri 15:50:54 36.3439 -114.3511 230° Southwest 419 482 43,000  Level Los Angeles Center
Fri 15:51:57 36.2681 -114.4639 230° Southwest 422 486 43,000 -432 Level Los Angeles Center
Fri 15:52:59 36.1922 -114.5756 230° Southwest 422 486 42,100 -919 Descending Los Angeles Center
Fri 15:54:01 36.1158 -114.6861 229° Southwest 422 486 41,100 -968 Descending Los Angeles Center
Fri 15:55:03 36.0394 -114.7983 230° Southwest 423 487 40,100 -968 Descending Los Angeles Center
Fri 15:56:05 35.9597 -114.9108 229° Southwest 430 495 39,100 -1,113 Descending Los Angeles Center
Fri 15:57:07 35.8619 -115.0431 228° Southwest 433 498 37,800 -1,113 Descending Los Angeles Center
Fri 15:58:09 35.7792 -115.1542 227° Southwest 437 503 36,800 -960 Descending Los Angeles Center
Fri 15:59:12 35.6967 -115.2700 229° Southwest 445 512 35,800 -968 Descending Los Angeles Center
Fri 16:00:13 35.6133 -115.3811 227° Southwest 442 509 34,800 -878 Descending Los Angeles Center
Fri 16:01:15 35.5294 -115.4944 228° Southwest 444 511 34,000 -864 Descending Los Angeles Center
Fri 16:02:18 35.4406 -115.6125 227° Southwest 448 516 33,000 -960 Descending Los Angeles Center
Fri 16:03:20 35.3556 -115.7267 228° Southwest 452 520 32,000 -968 Descending Los Angeles Center
Fri 16:04:22 35.2697 -115.8400 227° Southwest 454 522 31,000 -968 Descending Los Angeles Center
Fri 16:05:24 35.1828 -115.9556 227° Southwest 461 531 30,000 -971 Descending Los Angeles Center
Fri 16:06:38 35.0778 -116.0936 227° Southwest 461 531 28,800 -1,051 Descending Los Angeles Center
Fri 16:07:41 34.9758 -116.2297 228° Southwest 454 522 27,600 -1,056 Descending Los Angeles Center
Fri 16:08:43 34.8928 -116.3367 227° Southwest 439 505 26,600 -1,645 Descending Los Angeles Center
Fri 16:09:45 34.8114 -116.4433 227° Southwest 429 494 24,200 -1,544 Descending Los Angeles Center
Fri 16:10:59 34.7869 -116.5694 257° West 395 455 23,100 -1,059 Descending Los Angeles Center
Fri 16:12:01 34.7706 -116.7300 263° West 398 458 21,800 -1,152 Descending Los Angeles Center
Fri 16:13:04 34.7550 -116.8897 263° West 395 455 20,700 -864 Descending Los Angeles Center
Fri 16:14:06 34.7406 -117.0236 263° West 401 461 20,000 -341 Descending Los Angeles Center
Fri 16:15:07 34.7297 -117.1283 263° West 394 453 20,000 -97 Level Los Angeles Center
Fri 16:16:10 34.7131 -117.2811 262° West 384 442 19,800 -624 Descending Los Angeles Center
Fri 16:17:12 34.7000 -117.4122 263° West 385 443 18,700 -1,016 Descending Los Angeles Center
Fri 16:18:14 34.6869 -117.5428 263° West 387 445 17,700 -1,065 Descending Los Angeles Center
Fri 16:19:16 34.6736 -117.6694 263° West 378 435 16,500 -1,306 Descending Los Angeles Center
Fri 16:20:18 34.6581 -117.7917 261° West 368 423 15,000 -1,597 Descending Los Angeles Center
Fri 16:21:20 34.6153 -117.9275 249° West 361 415 13,200 -1,597 Descending Los Angeles Center
Fri 16:22:22 34.5822 -118.0378 250° West 348 400 11,700 -1,536 Descending Los Angeles Center
Fri 16:23:25 34.5506 -118.1358 249° West 314 361 10,000 -1,014 Descending Los Angeles Center
Fri 16:25:55 34.4500 -118.3333 238° Southwest 289 333 8,100 -645 Descending Southern California TRACON
Fri 16:26:31 34.4058 -118.3517 199° South 265 305 8,000 -673 Descending Los Angeles Center
Fri 16:27:33 34.3386 -118.3689 192° South 248 285 7,000 -484 Descending Los Angeles Center
Fri 16:28:35 34.2833 -118.3447 160° South 215 247 7,000 -484 Level Los Angeles Center
Fri 16:29:37 34.2231 -118.3094 154° Southeast 202 232 6,000 -726 Descending Los Angeles Center
Fri 16:30:39 34.1739 -118.2914 163° South 197 227 5,500 -823 Descending Los Angeles Center
Fri 16:31:41 34.1225 -118.3211 206° Southwest 209 241 4,300 -1,161 Descending Los Angeles Center
Fri 16:32:43 34.0847 -118.3700 227° Southwest 201 231 3,100 -1,344 Descending Los Angeles Center
Fri 16:33:46 34.0519 -118.4086 224° Southwest 186 214 1,500 -1,296 Descending Los Angeles Center
Fri 16:34:48 34.0244 -118.4428 226° Southwest 142 163 400 -629 Descending Los Angeles Center
Fri 16:35:50 34.0025 -118.4703 226° Southwest 137 158 200 -194 Descending Los Angeles Center
Fri 16:37:00 34.0000 -118.4500 90° East  Level FlightAware Approximate

Login

Don't have an account? Register now (free) for customized features, flight alerts, and more!